Location: Excel
(51.3833°N, 110.5667°W)
Time: 21:04:08
(UTC+00:00)

Envisat - Pass Details

Date: 06 December 2021
Orbit: 764 x 766 km, 98.2° (Epoch: 26 January)

Event Time Altitude Azimuth Distance (km) Brightness Sun altitude
Rises 14:15:37 0° 4° (N) 3,248 6.0 -8.4°
Reaches altitude 10° 14:18:34 10° 347° (NNW) 2,317 5.1 -7.9°
Maximum altitude 14:21:57 18° 305° (NW) 1,810 4.3 -7.5°
Drops below altitude 10° 14:25:19 10° 263° (W) 2,306 5.0 -7.0°
Sets 14:28:16 0° 246° (WSW) 3,228 5.9 -6.6°
